Weather History for YPPH - June, 2013

Change the Weather History Date:

Tuesday, June 25, 2013

  Actual Average Record
Temperature  
Mean Temperature 57 °F -  
Max Temperature 64 °F 64 °F 73 °F (2006)
Min Temperature 50 °F 47 °F 33 °F (2010)
Degree Days  
Heating Degree Days 8    
Growing Degree Days 7 (Base 50)    
Moisture  
Dew Point 54 °F    
Average Humidity 86    
Maximum Humidity 100    
Minimum Humidity 46    
Precipitation  
Precipitation 0.02 in 0.21 in - ()
Sea Level Pressure  
Sea Level Pressure 29.95 in    
Wind  
Wind Speed 7 mph ()    
Max Wind Speed 17 mph    
Max Gust Speed -    
Visibility 6.7 miles    
Events Rain    
Averages and records for this station are not official NWS values.
T = Trace of Precipitation, MM = Missing Value Source: Averaged Metar Reports

Daily Weather History Graph

Daily Weather History Graph

Search for Another Location

Airport or City:

Trip Planner

Search our weather history database for the weather conditions in past years. The results will help you decide how hot, cold, wet, or windy it might be!

Date:

Astronomy

Jun. 25, 2013 Rise Set
Actual Time 7:16 AM AWST 5:20 PM AWST
Civil Twilight 6:49 AM AWST 5:47 PM AWST
Nautical Twilight 6:19 AM AWST 6:18 PM AWST
Astronomical Twilight 5:49 AM AWST 6:48 PM AWST
Moon 7:39 PM AWST (6/25) 8:30 AM AWST (6/25)
Length of Visible Light 10h 57m
Length of Day
10h 03m
Waning Gibbous, 96% of the Moon is Illuminated
Jun 25
Waning Gibbous
Jun 30
Last Quarter
Jul 8
New
Jul 16
First Quarter
Jul 23
Full

Hourly Weather History & Observations

Time (AWST) Temp. Dew Point Humidity Pressure Visibility Wind Dir Wind Speed Gust Speed Precip Events Conditions
12:00 AM 56 °F 55 °F 96% 29.90 in 12 mi North 8.1 mph - -   Partly Cloudy
12:00 AM 57.2 °F 55.4 °F 94% 29.89 in 6.2 mi North 8.1 mph - N/A   Scattered Clouds
12:30 AM 57.2 °F 55.4 °F 94% 29.89 in 6.2 mi North 10.4 mph - N/A   Mostly Cloudy
12:48 AM 57.2 °F 55.4 °F 94% 29.89 in 6.2 mi North 10.4 mph - N/A Rain Rain Showers
1:00 AM 57.2 °F 55.4 °F 94% 29.89 in 1.9 mi NW 10.4 mph - N/A Rain Rain Showers
1:19 AM 57.2 °F 57.2 °F 100% 29.89 in 6.2 mi NNW 6.9 mph - N/A   Mostly Cloudy
1:30 AM 57.2 °F 57.2 °F 100% 29.89 in 6.2 mi NNW 5.8 mph - N/A   Mostly Cloudy
2:00 AM 57 °F 56 °F 97% 29.92 in - North 5.8 mph - -  
2:00 AM 57.2 °F 57.2 °F 100% 29.92 in 6.2 mi North 5.8 mph - N/A   Mostly Cloudy
2:30 AM 60.8 °F 53.6 °F 77% 29.89 in 6.2 mi NW 12.7 mph - N/A Rain Light Rain Showers
3:00 AM 59 °F 54 °F 79% 29.90 in 12 mi WNW 4.6 mph - -   Mostly Cloudy
3:00 AM 59.0 °F 53.6 °F 82% 29.89 in 6.2 mi WNW 4.6 mph - N/A   Mostly Cloudy
3:18 AM 59.0 °F 53.6 °F 82% 29.89 in 6.2 mi West 6.9 mph - N/A Rain Light Rain Showers
3:30 AM 59.0 °F 55.4 °F 88% 29.89 in 6.2 mi NW 11.5 mph - N/A Rain Light Rain Showers
4:00 AM 57.2 °F 55.4 °F 94% 29.89 in 6.2 mi North 6.9 mph - N/A   Mostly Cloudy
4:18 AM 57.2 °F 55.4 °F 94% 29.89 in 2.5 mi North 5.8 mph - N/A Rain Rain Showers
4:30 AM 57.2 °F 55.4 °F 94% 29.89 in 2.5 mi North 3.5 mph - N/A Rain Rain Showers
5:00 AM 58 °F 57 °F 94% 29.90 in - West 5.8 mph - -  
5:00 AM 57.2 °F 57.2 °F 100% 29.89 in 6.2 mi West 5.8 mph - N/A   Mostly Cloudy
5:30 AM 59.0 °F 57.2 °F 94% 29.89 in 6.2 mi South 6.9 mph - N/A   Mostly Cloudy
6:00 AM 58 °F 56 °F 93% 29.91 in 12 mi SSW 8.1 mph - -   Partly Cloudy
6:00 AM 59.0 °F 57.2 °F 94% 29.89 in 6.2 mi South 8.1 mph - N/A   Mostly Cloudy
6:30 AM 57.2 °F 55.4 °F 94% 29.89 in 6.2 mi SE 6.9 mph - N/A   Scattered Clouds
7:00 AM 55.4 °F 53.6 °F 94% 29.89 in 6.2 mi NE 5.8 mph - N/A   Partly Cloudy
7:30 AM 55.4 °F 53.6 °F 94% 29.92 in 6.2 mi NNE 1.2 mph - N/A   Partly Cloudy
8:00 AM 56 °F 55 °F 95% 29.93 in - North 4.6 mph - -  
8:00 AM 55.4 °F 55.4 °F 100% 29.92 in 6.2 mi North 4.6 mph - N/A   Scattered Clouds
8:23 AM 57.2 °F 57.2 °F 100% 29.92 in 3.1 mi NNE 5.8 mph - N/A Rain Light Rain Showers
8:30 AM 57.2 °F 55.4 °F 94% 29.92 in 3.7 mi North 3.5 mph - N/A Rain Light Rain Showers
8:45 AM 57.2 °F 57.2 °F 100% 29.92 in 1.9 mi NNW 5.8 mph - N/A Rain Light Rain Showers
9:00 AM 58 °F 57 °F 95% 29.94 in 3 mi Calm Calm - - Rain Light Rain Showers
9:00 AM 57.2 °F 57.2 °F 100% 29.92 in 3.1 mi Calm Calm - N/A Rain Light Rain Showers
9:24 AM 59.0 °F 57.2 °F 94% 29.95 in 6.2 mi West 5.8 mph - N/A   Mostly Cloudy
9:30 AM 59.0 °F 57.2 °F 94% 29.95 in 6.2 mi WSW 8.1 mph - N/A   Scattered Clouds
10:00 AM 60.8 °F 57.2 °F 88% 29.95 in 6.2 mi WSW 6.9 mph - N/A   Mostly Cloudy
10:30 AM 62.6 °F 57.2 °F 82% 29.95 in 6.2 mi SSW 9.2 mph - N/A   Mostly Cloudy
11:00 AM 64 °F 55 °F 65% 29.96 in - WSW 5.8 mph - -  
11:00 AM 64.4 °F 55.4 °F 73% 29.95 in 6.2 mi WSW 5.8 mph - N/A   Mostly Cloudy
11:30 AM 62.6 °F 55.4 °F 77% 29.95 in 6.2 mi SW 6.9 mph - N/A   Mostly Cloudy
12:00 PM 63 °F 57 °F 74% 29.95 in 12 mi South 4.6 mph - - Rain Light Rain Showers
12:00 PM 62.6 °F 57.2 °F 82% 29.95 in 6.2 mi South 4.6 mph - N/A   Mostly Cloudy
12:30 PM 64.4 °F 51.8 °F 64% 29.92 in 6.2 mi WSW 8.1 mph - N/A   Mostly Cloudy
1:00 PM 64.4 °F 50.0 °F 59% 29.92 in 6.2 mi WSW 15.0 mph - N/A   Mostly Cloudy
1:30 PM 62.6 °F 51.8 °F 68% 29.95 in 6.2 mi WSW 17.3 mph - N/A   Mostly Cloudy
2:00 PM 64 °F 50 °F 51% 29.95 in - SW 15.0 mph - -  
2:00 PM 64.4 °F 50.0 °F 59% 29.95 in - SW 15.0 mph - N/A   Clear
2:30 PM 64.4 °F 50.0 °F 59% 29.95 in 6.2 mi WSW 11.5 mph - N/A   Mostly Cloudy
3:00 PM 64 °F 48 °F 46% 29.94 in 16 mi WSW 11.5 mph - -   Partly Cloudy
3:00 PM 64.4 °F 48.2 °F 56% 29.92 in - WSW 11.5 mph - N/A   Clear
3:30 PM 62.6 °F 50.0 °F 63% 29.95 in 6.2 mi SW 15.0 mph - N/A   Mostly Cloudy
4:00 PM 62.6 °F 48.2 °F 59% 29.95 in 6.2 mi SSW 13.8 mph - N/A   Mostly Cloudy
4:30 PM 59.0 °F 51.8 °F 77% 29.98 in 6.2 mi WNW 11.5 mph - N/A   Mostly Cloudy
5:00 PM 57 °F 54 °F 84% 29.98 in - NW 10.4 mph - -  
5:00 PM 57.2 °F 53.6 °F 88% 29.98 in 6.2 mi NW 10.4 mph - N/A   Scattered Clouds
5:30 PM 57.2 °F 53.6 °F 88% 29.98 in 6.2 mi West 8.1 mph - N/A   Mostly Cloudy
6:00 PM 58 °F 50 °F 66% 30.01 in 16 mi SSW 8.1 mph - - Rain Light Rain Showers
6:00 PM 59.0 °F 50.0 °F 72% 30.01 in 6.2 mi SSW 8.1 mph - N/A   Mostly Cloudy
6:30 PM 57.2 °F 51.8 °F 82% 30.01 in 6.2 mi South 11.5 mph - N/A   Mostly Cloudy
7:00 PM 55.4 °F 53.6 °F 94% 30.01 in 6.2 mi SE 9.2 mph - N/A   Mostly Cloudy
7:30 PM 55.4 °F 53.6 °F 94% 30.04 in 6.2 mi East 2.3 mph - N/A   Mostly Cloudy
8:00 PM 56 °F 53 °F 87% 30.05 in - NW 6.9 mph - -  
8:00 PM 55.4 °F 53.6 °F 94% 30.04 in 6.2 mi NW 6.9 mph - N/A   Mostly Cloudy
8:30 PM 55.4 °F 53.6 °F 94% 30.04 in 6.2 mi North 5.8 mph - N/A   Scattered Clouds
9:00 PM 54 °F 52 °F 91% 30.05 in 19 mi East 5.8 mph - -   Partly Cloudy
9:00 PM 53.6 °F 51.8 °F 94% 30.04 in - East 5.8 mph - N/A   Clear
9:30 PM 51.8 °F 51.8 °F 100% 30.04 in - NNE 4.6 mph - N/A   Clear
10:00 PM 50.0 °F 50.0 °F 100% 30.04 in - North 5.8 mph - N/A   Clear
10:30 PM 50.0 °F 50.0 °F 100% 30.06 in - NE 5.8 mph - N/A   Clear
11:00 PM 51.8 °F 50.0 °F 94% 30.06 in - NE 5.8 mph - N/A   Clear
11:30 PM 50.0 °F 50.0 °F 100% 30.06 in - NNE 5.8 mph - N/A   Clear